Flag for Peru Weather past 2 weeks in Iquitos, Loreto, Peru

86 °F

Scattered clouds.

Feels Like: 97 °F
Forecast: N/A
Wind: 5 mph from Northwest

Location: Iquitos Airport

Current Time: Nov 25, 2015 at 5:57:10 PM

Latest Report: Nov 25, 2015 at 5:00 PM

Visibility: N/A

Pressure: 29.68 "Hg

Humidity: 75%

Dew point: 77 °F

Location of IquitosLocation

Historic Weather in Iquitos — Graph


Iquitos temperature yesterday

Maximum temperature yesterday: 91 °F (at 1:00 PM)
Minimum temperature yesterday: 75 °F (at 1:00 AM)
Average temperature yesterday: 82 °F

Past Weeks' High & Low Weather Summary

High95 °F (Nov 19, 3:00 PM)100% (Nov 12, 6:00 AM)29.92 "Hg (Nov 12, 6:00 AM)
Low73 °F (Nov 11, 5:00 AM)50% (Nov 20, 2:00 PM)29.62 "Hg (Nov 20, 3:00 PM)
Average81 °F83%29.79 "Hg
* Reported Nov 10 4:00 PM — Nov 25 4:00 PM, Iquitos, Weather by CustomWeather, © 2015

Note: Actual official high and low records may vary slightly from our data, if they occured in-between our weather recording intervals... More about our weather records


Iquitos weather history for previous 24 hours

Time TempWeatherWind HumidityBarometerVisibility
4:00 PM
Wed, Nov 25
90 °FScattered clouds.8 mph67%29.68 "HgN/A
3:00 PM90 °FScattered clouds.2 mph63%29.68 "HgN/A
2:00 PM84 °FDrizzle. Partly sunny.8 mph79%29.74 "Hg5 mi
1:00 PM86 °FLight rain. Partly sunny.5 mph75%29.77 "Hg6 mi
12:00 PM93 °FPartly sunny.6 mph59%29.80 "HgN/A
11:00 AM91 °FPartly sunny.5 mph63%29.83 "HgN/A
10:00 AM90 °FBroken clouds.6 mph67%29.86 "HgN/A
9:00 AM86 °FScattered clouds.5 mph75%29.86 "HgN/A
8:00 AM84 °FPassing clouds.5 mph74%29.86 "HgN/A
7:00 AM81 °FSunny.2 mph89%29.83 "Hg10 mi
6:00 AM77 °FSunny.No wind94%29.80 "Hg10 mi
5:00 AM77 °FClear.No wind94%29.77 "Hg10 mi
4:00 AM77 °FClear.2 mph94%29.74 "Hg10 mi
3:00 AM77 °FPassing clouds.3 mph94%29.74 "HgN/A
2:00 AM77 °FPassing clouds.1 mph94%29.74 "HgN/A
1:00 AM77 °FPassing clouds.2 mph94%29.77 "HgN/A
12:00 AM77 °FPassing clouds.No wind94%29.77 "HgN/A
11:00 PM
Tue, Nov 24
79 °FPassing clouds.No wind89%29.80 "HgN/A
10:00 PM79 °FClear.No wind89%29.80 "Hg10 mi
9:00 PM79 °FClear.No wind94%29.80 "Hg10 mi
8:00 PM81 °FClear.No wind84%29.74 "Hg10 mi
7:00 PM81 °FClear.No wind89%29.71 "Hg10 mi
6:00 PM86 °FPassing clouds.3 mph75%29.68 "HgN/A
5:00 PM91 °FPassing clouds.3 mph56%29.68 "HgN/A
Weather by CustomWeather, © 2015

See weather overviewHow to use our weather pages